SR8WXB-1 Weather Reports


time (UTC)temp
C
wind
direction
speed
KPH
gust
KPH
rain 1hr
cm
rain 24hr
cm
rain mn
cm
humidity
%
barometer
mb
20260504160437 20 251 24.1 29.0 0.00 0.00 0.00 100 943.1
20260504150825 21 238 30.6 40.2 0.00 0.00 0.00 100 943.3
20260504150425 22 239 32.2 38.6 0.00 0.00 0.00 100 943.3
20260504141208 22 239 30.6 43.5 0.00 0.00 0.00 100 943.5
20260504140808 22 254 27.4 32.2 0.00 0.00 0.00 100 943.5
20260504130756 23 240 27.4 41.8 0.00 0.00 0.00 100 943.9
20260504130356 22 244 29.0 46.7 0.00 0.00 0.00 100 944.0
20260504110324 22 252 32.2 43.5 0.00 0.00 0.00 100 944.9
20260504100315 21 266 33.8 41.8 0.00 0.00 0.00 100 945.5
20260504081850 18 255 29.0 33.8 0.00 0.00 0.00 100 946.0
20260504081450 18 263 27.4 37.0 0.00 0.00 0.00 100 945.9
20260504081047 17 260 25.7 33.8 0.00 0.00 0.00 100 946.0
20260504080647 17 253 30.6 41.8 0.00 0.00 0.00 100 946.0
20260504080247 17 249 30.6 37.0 0.00 0.00 0.00 100 945.9
20260504070235 15 240 17.7 29.0 0.00 0.00 0.00 100 945.7
20260504060216 13 241 14.5 17.7 0.00 0.00 0.00 100 945.5
20260504050604 11 243 19.3 24.1 0.00 0.00 0.00 100 945.3
20260504050204 11 244 20.9 25.7 0.00 0.00 0.00 100 945.3
20260504045804 11 241 19.3 24.1 0.00 0.00 0.00 100 945.3
20260504045404 11 243 19.3 24.1 0.00 0.00 0.00 100 945.3
20260504045001 11 244 22.5 27.4 0.00 0.00 0.00 100 945.3
20260504044601 11 245 22.5 25.7 0.00 0.00 0.00 100 945.4
20260504044201 11 244 20.9 25.7 0.00 0.00 0.00 100 945.4
20260504043801 11 246 22.5 25.7 0.00 0.00 0.00 100 945.4
20260504043401 11 245 20.9 25.7 0.00 0.00 0.00 100 945.4
20260504042958 11 245 20.9 25.7 0.00 0.00 0.00 100 945.3
20260504042558 11 244 20.9 25.7 0.00 0.00 0.00 100 945.3
20260504042158 11 246 22.5 27.4 0.00 0.00 0.00 100 945.3
20260504041758 11 244 22.5 27.4 0.00 0.00 0.00 100 945.3
20260504041358 11 245 22.5 27.4 0.00 0.00 0.00 100 945.3
20260504040955 11 244 20.9 25.7 0.00 0.00 0.00 100 945.3
20260504040555 11 243 20.9 25.7 0.00 0.00 0.00 100 945.3
20260504040155 11 244 20.9 25.7 0.00 0.00 0.00 100 945.3
20260504035755 10 244 20.9 25.7 0.00 0.00 0.00 100 945.2
20260504035347 10 244 22.5 27.4 0.00 0.00 0.00 100 945.2
20260504034944 10 243 20.9 24.1 0.00 0.00 0.00 100 945.3
20260504034544 10 243 22.5 24.1 0.00 0.00 0.00 100 945.2
20260504033744 10 244 22.5 24.1 0.00 0.00 0.00 100 945.2
20260504033344 10 243 17.7 22.5 0.00 0.00 0.00 100 945.2
20260504032937 10 244 22.5 25.7 0.00 0.00 0.00 100 945.2
20260504032537 10 241 19.3 27.4 0.00 0.00 0.00 100 945.2
20260504032137 10 244 20.9 25.7 0.00 0.00 0.00 100 945.2
20260504031737 10 241 20.9 24.1 0.00 0.00 0.00 100 945.2
20260504031337 10 241 19.3 22.5 0.00 0.00 0.00 100 945.2
20260504030934 10 238 19.3 25.7 0.00 0.00 0.00 100 945.2
20260504030534 10 238 16.1 22.5 0.00 0.00 0.00 100 945.2
20260504030134 10 239 19.3 24.1 0.00 0.00 0.00 100 945.2
20260504025734 10 240 20.9 25.7 0.00 0.00 0.00 100 945.2
20260504025334 10 242 22.5 24.1 0.00 0.00 0.00 100 945.2
20260504024931 10 239 17.7 20.9 0.00 0.00 0.00 100 945.2
20260504024532 10 237 17.7 22.5 0.00 0.00 0.00 100 945.2
20260504024132 10 240 19.3 25.7 0.00 0.00 0.00 100 945.2
20260504023732 10 241 20.9 25.7 0.00 0.00 0.00 100 945.2
20260504023332 10 239 19.3 25.7 0.00 0.00 0.00 100 945.2
20260504022929 10 242 20.9 25.7 0.00 0.00 0.00 100 945.2
20260504022529 10 239 19.3 24.1 0.00 0.00 0.00 100 945.2
20260504022129 10 238 20.9 24.1 0.00 0.00 0.00 100 945.3
20260504021729 10 240 20.9 25.7 0.00 0.00 0.00 100 945.2
20260504021329 10 239 19.3 25.7 0.00 0.00 0.00 100 945.2
20260504020926 11 241 20.9 24.1 0.00 0.00 0.00 100 945.2
20260504020526 11 241 22.5 25.7 0.00 0.00 0.00 100 945.3
20260504020126 11 237 19.3 25.7 0.00 0.00 0.00 100 945.3
20260504015726 11 239 19.3 25.7 0.00 0.00 0.00 100 945.4
20260504015326 11 241 20.9 25.7 0.00 0.00 0.00 100 945.4
20260504014923 11 240 20.9 27.4 0.00 0.00 0.00 100 945.4
20260504014523 11 239 19.3 24.1 0.00 0.00 0.00 100 945.4
20260504014123 11 239 19.3 24.1 0.00 0.00 0.00 100 945.4
20260504013723 11 241 22.5 27.4 0.00 0.00 0.00 100 945.4
20260504013323 11 241 20.9 25.7 0.00 0.00 0.00 100 945.4
20260504012920 11 241 20.9 25.7 0.00 0.00 0.00 100 945.3
20260504012517 11 241 19.3 25.7 0.00 0.00 0.00 100 945.3
20260504012117 11 243 22.5 29.0 0.00 0.00 0.00 100 945.4
20260504011705 11 243 24.1 29.0 0.00 0.00 0.00 100 945.4
20260504011305 10 243 20.9 27.4 0.00 0.00 0.00 100 945.4
20260504010903 10 243 22.5 25.7 0.00 0.00 0.00 100 945.4
20260504010503 10 241 20.9 29.0 0.00 0.00 0.00 100 945.4
20260504005703 11 240 19.3 22.5 0.00 0.00 0.00 100 945.4
20260504005304 11 241 19.3 24.1 0.00 0.00 0.00 100 945.5
20260504004900 11 242 17.7 20.9 0.00 0.00 0.00 100 945.5
20260504004500 11 242 19.3 22.5 0.00 0.00 0.00 100 945.5
20260504004100 11 242 19.3 24.1 0.00 0.00 0.00 100 945.5
20260504003700 11 242 19.3 24.1 0.00 0.00 0.00 100 945.6
20260504003300 11 241 19.3 22.5 0.00 0.00 0.00 100 945.6
20260504002857 11 244 20.9 24.1 0.00 0.00 0.00 100 945.6
20260504002457 11 242 20.9 24.1 0.00 0.00 0.00 100 945.6
20260504002057 11 244 19.3 22.5 0.00 0.00 0.00 100 945.6
20260504001657 11 241 20.9 24.1 0.00 0.00 0.00 100 945.6
20260504001257 11 244 20.9 25.7 0.00 0.00 0.00 100 945.7
20260504000854 11 243 19.3 24.1 0.00 0.00 0.00 100 945.7
20260504000454 11 243 19.3 22.5 0.00 0.00 0.00 100 945.7
20260504000054 11 245 20.9 27.4 0.00 0.00 0.00 100 945.7
20260503235255 11 245 22.5 25.7 0.00 0.00 0.00 100 945.7
20260503234852 11 244 19.3 24.1 0.00 0.00 0.00 100 945.7
20260503234451 11 245 19.3 24.1 0.00 0.00 0.00 100 945.7
20260503234051 11 244 19.3 24.1 0.00 0.00 0.00 100 945.7
20260503233651 11 245 19.3 22.5 0.00 0.00 0.00 100 945.8
20260503233251 11 245 19.3 20.9 0.00 0.00 0.00 100 945.8
20260503232848 11 244 16.1 19.3 0.00 0.00 0.00 100 945.8
20260503232449 11 245 17.7 22.5 0.00 0.00 0.00 100 945.8
20260503232045 11 244 19.3 22.5 0.00 0.00 0.00 100 945.8
20260503231645 11 244 19.3 22.5 0.00 0.00 0.00 100 945.8
20260503231245 11 241 17.7 20.9 0.00 0.00 0.00 100 945.7
20260503230842 11 243 17.7 22.5 0.00 0.00 0.00 100 945.7
20260503230442 11 243 16.1 19.3 0.00 0.00 0.00 100 945.8
20260503230042 11 241 17.7 22.5 0.00 0.00 0.00 100 945.8
20260503225642 12 242 17.7 20.9 0.00 0.00 0.00 100 945.8
20260503225242 12 243 19.3 22.5 0.00 0.00 0.00 100 945.8
20260503224840 12 245 19.3 24.1 0.00 0.00 0.00 100 945.7
20260503224440 11 248 17.7 20.9 0.00 0.00 0.00 100 945.8
20260503224031 11 246 19.3 22.5 0.00 0.00 0.00 100 945.8
20260503223631 11 243 16.1 20.9 0.00 0.00 0.00 100 945.8
20260503223231 12 240 12.9 16.1 0.00 0.00 0.00 100 945.8
20260503222828 12 239 12.9 17.7 0.00 0.00 0.00 100 945.8
20260503222428 12 239 12.9 16.1 0.00 0.00 0.00 100 945.8
20260503222028 12 242 12.9 16.1 0.00 0.00 0.00 100 945.8
20260503221628 12 241 12.9 16.1 0.00 0.00 0.00 100 945.8
20260503221228 12 242 14.5 17.7 0.00 0.00 0.00 100 945.8
20260503220826 12 245 16.1 17.7 0.00 0.00 0.00 100 945.8
20260503220426 12 243 14.5 16.1 0.00 0.00 0.00 100 945.8
20260503220026 12 237 9.7 14.5 0.00 0.00 0.00 100 945.7
20260503215626 12 238 11.3 14.5 0.00 0.00 0.00 100 945.7
20260503215226 12 237 11.3 16.1 0.00 0.00 0.00 100 945.7
20260503214823 12 239 12.9 16.1 0.00 0.00 0.00 100 945.8
20260503214423 12 241 12.9 16.1 0.00 0.00 0.00 100 945.8
20260503214023 12 239 12.9 16.1 0.00 0.00 0.00 100 945.7
20260503213622 13 244 12.9 17.7 0.00 0.00 0.00 100 945.7
20260503213249 -17 241 12.9 0.0 0.00 0.00 0.00
20260503213223 13 241 12.9 16.1 0.00 0.00 0.00 100 945.7
20260503212820 13 242 14.5 17.7 0.00 0.00 0.00 100 945.7
20260503212420 13 242 12.9 16.1 0.00 0.00 0.00 100 945.7
20260503212020 13 243 12.9 16.1 0.00 0.00 0.00 100 945.7
20260503211617 13 241 14.5 19.3 0.00 0.00 0.00 100 945.7
20260503211217 13 241 12.9 16.1 0.00 0.00 0.00 100 945.7
20260503210814 13 243 14.5 16.1 0.00 0.00 0.00 100 945.8
20260503210414 13 245 14.5 17.7 0.00 0.00 0.00 100 945.8
20260503210014 13 244 14.5 16.1 0.00 0.00 0.00 100 945.7
20260503205614 13 241 12.9 16.1 0.00 0.00 0.00 100 945.7
20260503205214 13 243 12.9 16.1 0.00 0.00 0.00 100 945.7
20260503204811 13 246 16.1 19.3 0.00 0.00 0.00 100 945.7
20260503204411 13 243 14.5 17.7 0.00 0.00 0.00 100 945.7
20260503204011 13 246 14.5 16.1 0.00 0.00 0.00 100 945.7
20260503203611 14 244 11.3 14.5 0.00 0.00 0.00 100 945.8
20260503203211 14 236 6.4 8.0 0.00 0.00 0.00 100 945.8
20260503202808 14 235 6.4 11.3 0.00 0.00 0.00 100 945.8
20260503202408 13 236 6.4 8.0 0.00 0.00 0.00 100 945.8
20260503202008 13 234 6.4 8.0 0.00 0.00 0.00 100 945.8
20260503201608 14 232 6.4 9.7 0.00 0.00 0.00 100 945.8
20260503201208 14 229 11.3 16.1 0.00 0.00 0.00 100 945.7
20260503200754 14 231 9.7 16.1 0.00 0.00 0.00 100 945.8
20260503200354 14 231 8.0 11.3 0.00 0.00 0.00 100 945.8
20260503195554 14 237 8.0 11.3 0.00 0.00 0.00 100 945.8
20260503195154 14 233 6.4 8.0 0.00 0.00 0.00 100 945.9
20260503194751 14 233 11.3 16.1 0.00 0.00 0.00 100 945.9
20260503194351 14 233 9.7 17.7 0.00 0.00 0.00 100 945.9
20260503193952 14 233 12.9 16.1 0.00 0.00 0.00 100 945.9
20260503193552 15 239 16.1 16.1 0.00 0.00 0.00 100 945.9
20260503193152 15 244 17.7 17.7 0.00 0.00 0.00 100 945.9
20260503192749 15 248 17.7 19.3 0.00 0.00 0.00 100 945.9
20260503192348 15 242 17.7 19.3 0.00 0.00 0.00 100 945.9
20260503191948 15 241 17.7 19.3 0.00 0.00 0.00 100 946.0
20260503191548 15 236 17.7 19.3 0.00 0.00 0.00 100 946.0
20260503191145 15 235 19.3 19.3 0.00 0.00 0.00 100 945.9
20260503190742 15 236 17.7 19.3 0.00 0.00 0.00 100 945.9
20260503190342 15 240 17.7 17.7 0.00 0.00 0.00 100 945.9
20260503185942 15 243 17.7 19.3 0.00 0.00 0.00 100 945.9
20260503185542 15 242 17.7 19.3 0.00 0.00 0.00 100 945.9
20260503185143 15 243 16.1 19.3 0.00 0.00 0.00 100 945.9
20260503184740 15 245 16.1 17.7 0.00 0.00 0.00 100 945.9
20260503184340 15 253 16.1 19.3 0.00 0.00 0.00 100 945.9
20260503183940 15 251 16.1 17.7 0.00 0.00 0.00 100 945.9
20260503183540 15 252 16.1 19.3 0.00 0.00 0.00 100 945.9
20260503183140 15 257 16.1 19.3 0.00 0.00 0.00 100 945.9
20260503182737 15 254 16.1 19.3 0.00 0.00 0.00 100 945.8
20260503182337 15 256 16.1 17.7 0.00 0.00 0.00 100 945.8
20260503181937 15 258 16.1 19.3 0.00 0.00 0.00 100 945.8
20260503181537 15 258 16.1 17.7 0.00 0.00 0.00 100 945.8
20260503181137 15 258 16.1 19.3 0.00 0.00 0.00 100 945.8
20260503180734 15 261 14.5 17.7 0.00 0.00 0.00 100 945.8
20260503180334 15 258 14.5 16.1 0.00 0.00 0.00 100 945.8
20260503175934 15 259 14.5 17.7 0.00 0.00 0.00 100 945.7
20260503175534 15 259 14.5 19.3 0.00 0.00 0.00 100 945.7
20260503175134 15 257 14.5 19.3 0.00 0.00 0.00 100 945.7
20260503174731 15 255 16.1 17.7 0.00 0.00 0.00 100 945.7
20260503174331 15 253 16.1 19.3 0.00 0.00 0.00 100 945.7
20260503173931 15 256 14.5 17.7 0.00 0.00 0.00 100 945.7
20260503173531 16 259 12.9 12.9 0.00 0.00 0.00 100 945.7
20260503173122 16 258 12.9 14.5 0.00 0.00 0.00 100 945.7
20260503172719 16 265 12.9 16.1 0.00 0.00 0.00 100 945.7
20260503172319 16 256 12.9 16.1 0.00 0.00 0.00 100 945.7
20260503171520 16 251 12.9 16.1 0.00 0.00 0.00 100 945.7
20260503171120 16 251 12.9 16.1 0.00 0.00 0.00 100 945.7
20260503170713 16 260 14.5 16.1 0.00 0.00 0.00 100 945.6
20260503170313 16 258 12.9 16.1 0.00 0.00 0.00 100 945.6